Location: LewisvilleTX
(33.0462°N, 96.9942°W)
Time: 02:07:31
(UTC+00:00)

Envisat - Visible Passes

Search period start: 28 September 2020 00:00
Search period end: 08 October 2020 00:00
Orbit: 764 x 766 km, 98.1° (Epoch: 27 September)

Date Brightness Start Highest point End Pass type
(mag) Time Alt. Az. Time Alt. Az. Time Alt. Az.
28 Sep 6.4 01:12:17 10° WSW 01:14:16 12° W 01:16:15 10° WNW visible
28 Sep 5.4 11:43:41 10° NE 11:48:04 29° E 11:52:25 10° SSE visible
29 Sep 6.5 11:09:19 10° ENE 11:11:00 11° E 11:12:40 10° ESE visible
01 Oct 6.2 00:59:42 10° SW 01:02:48 16° W 01:05:55 10° NW visible
01 Oct 5.8 11:32:43 10° NE 11:36:38 22° E 11:40:32 10° SE visible
03 Oct 4.6 11:57:24 10° NNE 12:02:12 41° E 12:06:57 10° S visible
04 Oct 5.9 00:47:34 10° SW 00:51:21 21° W 00:55:10 10° NW visible
04 Oct 6.1 11:21:55 10° NE 11:25:12 17° E 11:28:27 10° SE visible
06 Oct 6.6 01:15:46 10° WSW 01:17:01 11° W 01:18:16 10° WNW visible
06 Oct 5.1 11:46:17 10° NE 11:50:48 32° E 11:55:16 10° SSE visible
07 Oct 5.5 00:35:39 10° SSW 00:39:55 27° W 00:44:14 10° NW visible
07 Oct 6.4 11:11:29 10° ENE 11:13:44 13° E 11:15:59 10° ESE visible
